Карточка аэропорта UNTT

Внимание!
Информация на этой странице в стадии наполнения.
Если вы не увидели какой-то информации, или заметили неточность - пожалуйста сообщите нам!
Спасибо!
Команда RU-STAFF
Название аэропортаБогашево
Название аэропорта (англ.)Bogashevo
Превышение597 ft. (182 m.)
Координаты56°22.2', 85°12.6'
Высота перехода1000m
Эшелон переходаQFE>=743mm:FL040; QFE<743mm:FL050
Коды ответчика5230-5247
Зона ОрВДНовосибирск РПИ (UNNT)
Данные METARUNTT 252200Z 17001MPS CAVOK 18/18 Q1008 R21/190055 NOSIG RMK QFE741
Проноз погоды (TAF)UNTT 252000Z 2521/2606 18003G08MPS 8000 BKN020CB TEMPO 2521/2601 0300 FG BKN002 BKN011CB
NOTAMshow/hide NOTAM
AWOS   TABLE

Информация о ВПП

ВПП Длина ВПП (м.) Покрытие Курс ВПП Частота ILS
032500Асфальтобетон25 
212500Асфальтобетон205110.3

Диспетчерские позиции




Спутниковое изображение